Regional Weather Roundup
Issued by NWS

Home | Current Version | Previous Version | Text Only | Print | Product List | Glossary Off
Versions: 1 2 3 4 5 6 7 8 9 10 11 12 13 14 15 16 17 18 19 20 21 22 23 24 25 26 27 28 29 30 31 32 33 34 35 36 37 38 39 40 41 42 43 44 45 46 47 48 49 50

000
ASUS43 KMPX 170810
RWRMN
WEATHER ROUNDUP FOR MINNESOTA
NATIONAL WEATHER SERVICE TWIN CITIES/CHANHASSEN MN
200 AM CST WED JAN 17 2018


NOTE: "FAIR" INDICATES FEW OR NO CLOUDS BELOW 12,000 FEET WITH NO
SIGNIFICANT WEATHER AND/OR OBSTRUCTIONS TO VISIBILITY. N/A MEANS
CURRENT SKY AND/OR WEATHER CONDITIONS ARE NOT AVAILABLE.

MNZ060>063-068>070-170900-
   Twin Cities Metro

CITY           SKY/WX    TMP DP  RH WIND       PRES   REMARKS
TWIN CITIES    FAIR      -1  -4  87 SW5       30.48F WCI -11
ST PAUL        FAIR      -1  -4  87 SE5       30.50F WCI -11
CRYSTAL        FAIR      -1  -7  75 S6        30.45F WCI -13
BLAINE         FAIR       1  -2  85 SW7       30.44F WCI -11
LAKEVILLE        N/A     -6  -8  92 CALM      30.47F
EDEN PRAIRIE   FAIR      -3  -7  82 SW5       30.46F WCI -13
SOUTH ST PAUL  FAIR      -3  -7  81 SE3       30.48F
LAKE ELMO      FAIR      -2  -6  84 S6        30.47F WCI -14
$$
MNZ001>005-007-008-013>017-022>024-027-028-170900-
   Northwest Minnesota

CITY           SKY/WX    TMP DP  RH WIND       PRES   REMARKS
BEMIDJI        FAIR       7  -3  64 SW12      30.20F WCI  -9
HALLOCK        FAIR       5   0  78 S21       30.11F WCI -16
ROSEAU         FAIR       9   1  72 SW17G23   30.10F WCI -10
WARROAD        FAIR       9   0  66 SW18G28   30.09F WCI -10
THIEF RVR FALL LGT SNOW   4  -1  80 SW25      30.17F WCI -19
CROOKSTON      FAIR       5   0  78 S22G28    30.23F HAZE    WCI -16
FOSSTON        FAIR       3  -4  72 S20       30.23F WCI -18
DETROIT LAKES  FAIR       3  -2  78 S7        30.28F WCI  -9
MOORHEAD       FAIR       1  -6  71 S7        30.30F WCI -11
PARK RAPIDS    FAIR       2  -4  76 SW10      30.26F WCI -14
MAHNOMEN       FAIR       4  -4  72 S14       30.25F WCI -14
$$
MNZ006-009>011-018-025>026-170900-
   North Central Minnesota

CITY           SKY/WX    TMP DP  RH WIND       PRES   REMARKS
BAUDETTE       FAIR       8  -2  63 SW15G25   30.09F WCI  -9
FLAG ISLAND    FAIR       9   0  66 S13       30.04F WCI  -7
INTL FALLS     FAIR       9  -4  55 SW15G23   30.11F WCI  -8
WASKISH        FAIR      10   0  61 SW13G18   30.16F WCI  -5
BIG FORK       FAIR       7  -4  61 SW10      30.18F WCI  -8
LONGVILLE      FAIR       3  -4  72 SW8       30.26F WCI -10
GRAND RAPIDS   FAIR       5  -3  69 S7        30.25F WCI  -7
CRANE LAKE     FAIR       7  -2  66 S5        30.16F WCI  -2
ORR            FAIR       5  -6  61 SW7       30.13F WCI  -7
COOK           FAIR       3  -2  78 SW9       30.18F WCI -11
WALKER         FAIR       6  -4  63 SW14      30.24F WCI -11
$$
MNZ012-019>021-037-170900-
   Northeast Minnesota

CITY           SKY/WX    TMP DP  RH WIND       PRES   REMARKS
DULUTH         FAIR       4  -3  73 W20       30.24F WCI -17
ELY            FAIR       7  -2  66 SW12G17   30.15F WCI  -9
HIBBING        FAIR       2  -4  76 VRB6      30.21F WCI  -9
EVELETH        FAIR       2  -6  67 SW10G17   30.22F WCI -13
DULUTH HARBOR  FAIR       5  -2  72 SW17      30.33F WCI -14
TWO HARBORS    FAIR      10   0  61 SW8       30.24S WCI  -1
SILVER BAY     FAIR      10   0  61 SW7       30.19F WCI   0
GRAND MARAIS     N/A     16   6  65 W10       30.19F WCI   4
G MARAIS ARPRT FAIR       9  -2  61 SW7       30.07F WCI  -3
$$
MNZ029>031-032-039>041-046>048-054>057-064-170900-
   West Central Minnesota

CITY           SKY/WX    TMP DP  RH WIND       PRES   REMARKS
FERGUS FALLS   FAIR       1  -6  71 S9        30.36F WCI -14
WHEATON        CLOUDY     1  -4  78 SE9       30.34F WCI -14
MORRIS         CLOUDY     0  -6  78 SE9       30.34F WCI -16
ALEXANDRIA     FAIR       2  -4  76 SW9       30.32F WCI -13
ELBOW LAKE     FAIR       0  -5  78 S12       30.33F HAZE    WCI -17
WADENA         FAIR       0  -6  78 CALM      30.29F
GLENWOOD       FAIR       0  -4  85 S10       30.35F WCI -17
APPLETON       CLOUDY     3  -4  72 S6        30.37F WCI  -8
BENSON         CLOUDY     0  -6  78 S9        30.38F WCI -16
ORTONVILLE     CLOUDY     1  -6  71 S7        30.34F WCI -11
MADISON        CLOUDY     7   0  72 S6        30.37F WCI  -3
WILLMAR        FAIR       3  -2  78 S3        30.42F
$$
MNZ033>034-036-042>043-049>051-058-059-170900-
   Central Minnesota

CITY           SKY/WX    TMP DP  RH WIND       PRES   REMARKS
ST CLOUD       FAIR      -3  -7  82 S6        30.39F WCI -15
SAUK CENTRE      N/A      2  -4  75 S9        30.36F WCI -13
PAYNESVILLE    FAIR       2  -2  81 SW8       30.39F WCI -11
AITKIN         FAIR       1  -6  71 SW7       30.30F WCI -11
PINE RIVER     FAIR       1  -4  78 S5        30.31F WCI  -8
BRAINERD       FAIR       1  -5  75 S9        30.32F WCI -14
STAPLES        FAIR       0  -6  78 S5        30.31S WCI -10
LONG PRAIRIE   FAIR       1  -4  78 S8        30.33F WCI -12
LITTLE FALLS   FAIR       1  -8  66 S5        30.37F WCI  -8
LITCHFIELD     FAIR       1  -2  85 CALM      30.41F
BUFFALO        FAIR       0  -4  82 S6        30.44F WCI -11
MAPLE LAKE     FAIR       0  -3  85 MISG      30.42F
HUTCHINSON     FAIR       3  -3  78 SW7       30.44F WCI -10
$$
MNZ037-044-045-052-053-170900-
   East Central Minnesota

CITY           SKY/WX    TMP DP  RH WIND       PRES   REMARKS
PRINCETON      FAIR       0  -6  78 S5        30.40F WCI -10
MORA           FAIR       0  -6  78 SW6       30.40F WCI -12
CAMBRIDGE      FAIR       0  -8  71 S6        30.42F WCI -12
RUSH CITY      MOCLDY    -2  -6  82 S6        30.42F WCI -14
MOOSE LAKE     FAIR       0  -6  78 CALM      30.33S
HINCKLEY       FAIR       0  -4  85 SW6       30.39S WCI -12
CLOQUET        FAIR       3  -6  66 SW8       30.28F WCI -10
MCGREGOR       FAIR       3   0  85 S7        30.31F WCI  -9
$$
MNZ071>073-080-081-089-090-097-098-170900-
   Southwest Minnesota

CITY           SKY/WX    TMP DP  RH WIND       PRES   REMARKS
MONTEVIDEO     CLOUDY     1  -4  78 SW5       30.39F WCI  -8
GRANITE FALLS  CLOUDY     1  -4  78 SE8       30.42F WCI -12
CANBY          CLOUDY    11   1  66 SW22G30   30.35F WCI  -9
MARSHALL       CLOUDY    10   1  67 SW18G32   30.38F WCI  -8
REDWOOD FALLS  CLOUDY     0  -5  79 S8        30.44F WCI -14
OLIVIA         CLOUDY     3  -2  78 S9        30.42F WCI -11
PIPESTONE      CLOUDY     1  -2  85 SW14      30.38F WCI -17
WINDOM         CLOUDY     1 -11  55 SW10      30.43S WCI -14
WORTHINGTON    CLOUDY     4  -2  76 SW17      30.41F WCI -16
JACKSON        CLOUDY     3  -4  72 SW14      30.44F WCI -15
SLAYTON        CLOUDY     3  -2  79 SW15      30.40F WCI -16
$$
MNZ065>067-074>077-082>085-091>093-170900-
   South Central Minnesota

CITY           SKY/WX    TMP DP  RH WIND       PRES   REMARKS
MANKATO        FAIR      -2  -6  83 S3        30.49F
NEW ULM        CLOUDY     0  -6  78 S9        30.46F WCI -16
ST JAMES       CLOUDY     0  -4  85 S6        30.48F WCI -12
FAIRMONT       CLOUDY     1  -3  83 SW8       30.49F WCI -13
FARIBAULT      FAIR      -4  -8  84 CALM      30.49S
OWATONNA       FAIR      -2  -6  84 S8        30.47F WCI -17
WASECA         FAIR       0  -6  78 S8        30.49F WCI -15
ALBERT LEA     FAIR      -2  -8  78 SW3       30.49R
$$
MNZ078>079-086>088-094>096-170900-
   Southeast Minnesota

CITY           SKY/WX    TMP DP  RH WIND       PRES   REMARKS
ROCHESTER      FAIR      -1  -4  87 SW13      30.46F WCI -19
RED WING       FAIR      -8 -15  71 CALM      30.50S
STANTON        FAIR      -2  -7  81 S6        30.48R WCI -14
DODGE CENTER   FAIR      -4  -8  84 SW9       30.45S WCI -20
WINONA         FAIR      -4  -8  84 CALM      30.54R
AUSTIN         FAIR      -4  -9  77 SW5       30.48F WCI -15
PRESTON        FAIR      -4  -8  82 SW6       30.47F WCI -16
$$
ABBREVIATIONS USED IN REMARKS
   TC - TEMPERATURES IN CELSIUS
  WCI - WIND CHILL INDEX
   HX - HEAT INDEX
  VSB - VISIBILITY
$$




USA.gov is the U.S. government's official web portal to all federal, state and local government web resources and services.